Location: Cuiry
(49.3858°N, 3.7708°E)
Time: 09:59:24
(UTC+00:00)

BREEZE M DEB (TANK) - Pass Details

Date: 12 January 2026
Orbit: 296 x 13741 km, 49.5° (Epoch: 18 February)

Event Time Altitude Azimuth Distance (km) Brightness Sun altitude
Rises 17:11:24 0° 281° (WNW) 2,054 6.8 -9.7°
Reaches altitude 10° 17:13:09 10° 273° (W) 1,163 5.7 -10.0°
Maximum altitude 17:15:10 40° 199° (SSW) 515 3.1 -10.3°
Drops below altitude 10° 17:18:08 10° 127° (SE) 1,712 5.0 -10.7°
Enters shadow 17:21:35 - 120° (ESE) 3,460 6.5 -11.3°
